This is the latest recevied weather packets stored in our database for station/object AA6HF. If no packets are shown the sender has not sent any weather packets the latest 10 day(s).
| Time | Temp. | Humidity | Pressure | Rain* | Wind** | Luminosity | Snow |
|---|---|---|---|---|---|---|---|
| 1777919732 | 23.33° C | 31% | 1011 hPa | 0 mm | - | - | - |
| 1777919432 | 23.33° C | 31% | 1011.1 hPa | 0 mm | - | - | - |
| 1777919132 | 23.33° C | 31% | 1011.1 hPa | 0 mm | - | - | - |
| 1777918832 | 23.33° C | 31% | 1011.2 hPa | 0 mm | - | - | - |
| 1777918532 | 22.78° C | 31% | 1011.1 hPa | 0 mm | - | - | - |
| 1777918232 | 22.22° C | 32% | 1011.1 hPa | 0 mm | - | - | - |
| 1777917932 | 22.22° C | 32% | 1011.2 hPa | 0 mm | - | - | - |
| 1777917632 | 22.22° C | 33% | 1011.2 hPa | 0 mm | - | - | - |
| 1777917332 | 21.67° C | 33% | 1011.1 hPa | 0 mm | - | - | - |
| 1777917032 | 21.67° C | 33% | 1011 hPa | 0 mm | - | - | - |
| 1777916732 | 21.11° C | 35% | 1011.1 hPa | 0 mm | - | - | - |
| 1777916432 | 21.11° C | 34% | 1011 hPa | 0 mm | - | - | - |
| 1777916132 | 21.11° C | 34% | 1011 hPa | 0 mm | - | - | - |
| 1777915832 | 21.67° C | 34% | 1011 hPa | 0 mm | - | - | - |
| 1777915532 | 21.11° C | 36% | 1010.9 hPa | 0 mm | - | - | - |
| 1777915232 | 21.11° C | 35% | 1011 hPa | 0 mm | - | - | - |
| 1777914932 | 21.67° C | 35% | 1011 hPa | 0 mm | - | - | - |
| 1777914632 | 21.11° C | 37% | 1010.9 hPa | 0 mm | - | - | - |
| 1777914332 | 21.11° C | 36% | 1010.9 hPa | 0 mm | - | - | - |
| 1777914032 | 21.11° C | 35% | 1010.9 hPa | 0 mm | - | - | - |
| 1777913732 | 20.56° C | 38% | 1010.9 hPa | 0 mm | - | - | - |
| 1777913432 | 20° C | 38% | 1010.9 hPa | 0 mm | - | - | - |
| 1777913132 | 20° C | 37% | 1010.7 hPa | 0 mm | - | - | - |
| 1777912832 | 20.56° C | 37% | 1010.8 hPa | 0 mm | - | - | - |
| 1777912532 | 20.56° C | 37% | 1010.7 hPa | 0 mm | - | - | - |
* Rain latest hour (hover to see other rain measurements)
** Current wind speed in m/s (hover to see current wind gust speed)